This is the latest recevied weather packets stored in our database for station/object K4IR. If no packets are shown the sender has not sent any weather packets the latest 10 day(s).
| Time | Temp. | Humidity | Pressure | Rain* | Wind** | Luminosity | Snow |
|---|---|---|---|---|---|---|---|
| 1778162899 | 21.67° C | 98% | 1011.3 hPa | 0.51 mm | - | 162 W/m² | - |
| 1778162294 | 21.67° C | 98% | 1011.2 hPa | 0 mm | - | 95 W/m² | - |
| 1778161694 | 21.67° C | 98% | 1010.2 hPa | 0 mm | - | 67 W/m² | - |
| 1778161091 | 21.67° C | 98% | 1010.2 hPa | 0 mm | - | 93 W/m² | - |
| 1778160492 | 21.67° C | 98% | 1010.3 hPa | 0 mm | - | 164 W/m² | - |
| 1778159891 | 21.67° C | 98% | 1011 hPa | 0 mm | - | 178 W/m² | - |
| 1778159290 | 21.67° C | 98% | 1011.5 hPa | 0 mm | - | 116 W/m² | - |
| 1778158687 | 21.67° C | 98% | 1012.1 hPa | 0 mm | - | 114 W/m² | - |
| 1778158087 | 21.67° C | 98% | 1012.2 hPa | 0 mm | - | 108 W/m² | - |
| 1778157481 | 21.11° C | 98% | 1011.9 hPa | 1.27 mm | - | 69 W/m² | - |
| 1778156880 | 21.11° C | 98% | 1012.3 hPa | 0 mm | - | 39 W/m² | - |
| 1778156278 | 21.11° C | 98% | 1012.4 hPa | 0 mm | - | 33 W/m² | - |
| 1778155676 | 21.11° C | 98% | 1012.2 hPa | 0 mm | - | 24 W/m² | - |
| 1778155075 | 21.11° C | 98% | 1012.3 hPa | 0 mm | - | 30 W/m² | - |
| 1778154472 | 21.11° C | 98% | 1012.1 hPa | 0 mm | - | 24 W/m² | - |
| 1778153867 | 21.11° C | 98% | 1012.4 hPa | 0 mm | - | 27 W/m² | - |
| 1778153268 | 21.11° C | 98% | 1012.9 hPa | 0 mm | - | 28 W/m² | - |
| 1778152663 | 21.11° C | 98% | 1012.9 hPa | 0 mm | - | 26 W/m² | - |
| 1778152060 | 21.11° C | 98% | 1013 hPa | 0.51 mm | - | 19 W/m² | - |
| 1778151460 | 21.11° C | 98% | 1013 hPa | 0 mm | - | 11 W/m² | - |
| 1778150859 | 21.11° C | 98% | 1012.6 hPa | 0 mm | - | 8 W/m² | - |
| 1778150258 | 21.11° C | 98% | 1012.5 hPa | 0 mm | - | 4 W/m² | - |
| 1778149656 | 21.11° C | 98% | 1012.6 hPa | 0 mm | - | 1 W/m² | - |
| 1778149056 | 21.11° C | 98% | 1012.5 hPa | 0.51 mm | - | 0 W/m² | - |
| 1778148454 | 21.11° C | 98% | 1012.4 hPa | 2.29 mm | - | 0 W/m² | - |
* Rain latest hour (hover to see other rain measurements)
** Current wind speed in m/s (hover to see current wind gust speed)